Year,Month,Day,Hour,Minute,Value (Times are PST for temperature in C)
2013,07,10,00,00,13.40
2013,07,10,00,01,13.40
2013,07,10,00,02,13.40
2013,07,10,00,03,13.40
2013,07,10,00,04,13.40
2013,07,10,00,05,13.40
2013,07,10,00,06,13.40
2013,07,10,00,07,13.40
2013,07,10,00,08,13.40
2013,07,10,00,09,13.40
2013,07,10,00,10,13.30
2013,07,10,00,11,13.30
2013,07,10,00,12,13.30
2013,07,10,00,13,13.20
2013,07,10,00,14,13.20
2013,07,10,00,15,13.20
2013,07,10,00,16,13.20
2013,07,10,00,17,13.10
2013,07,10,00,18,13.10
2013,07,10,00,19,13.10
2013,07,10,00,20,13.10
2013,07,10,00,21,13.10
2013,07,10,00,22,13.10
2013,07,10,00,23,13.00
2013,07,10,00,24,13.00
2013,07,10,00,25,13.00
2013,07,10,00,26,12.90
2013,07,10,00,27,12.90
2013,07,10,00,28,12.90
2013,07,10,00,29,12.90
2013,07,10,00,30,12.90
2013,07,10,00,31,12.90
2013,07,10,00,32,12.90
2013,07,10,00,33,12.90
2013,07,10,00,34,12.80
2013,07,10,00,35,12.80
2013,07,10,00,36,12.80
2013,07,10,00,37,12.80
2013,07,10,00,38,12.80
2013,07,10,00,39,12.80
2013,07,10,00,40,12.80
2013,07,10,00,41,12.70
2013,07,10,00,42,12.70
2013,07,10,00,43,12.70
2013,07,10,00,44,12.70
2013,07,10,00,45,12.70
2013,07,10,00,46,12.70
2013,07,10,00,47,12.70
2013,07,10,00,48,12.70
2013,07,10,00,49,12.70
2013,07,10,00,50,12.70
2013,07,10,00,51,12.70
2013,07,10,00,52,12.70
2013,07,10,00,53,12.70
2013,07,10,00,54,12.80
2013,07,10,00,55,12.80
2013,07,10,00,56,12.80
2013,07,10,00,57,12.70
2013,07,10,00,58,12.70
2013,07,10,00,59,12.70
2013,07,10,01,00,12.70
2013,07,10,01,01,12.70
2013,07,10,01,02,12.70
2013,07,10,01,03,12.70
2013,07,10,01,04,12.70
2013,07,10,01,05,12.70
2013,07,10,01,06,12.70
2013,07,10,01,07,12.70
2013,07,10,01,08,12.70
2013,07,10,01,09,12.70
2013,07,10,01,10,12.70
2013,07,10,01,11,12.70
2013,07,10,01,12,12.70
2013,07,10,01,13,12.70
2013,07,10,01,14,12.70
2013,07,10,01,15,12.70
2013,07,10,01,16,12.70
2013,07,10,01,17,12.70
2013,07,10,01,18,12.70
2013,07,10,01,19,12.70
2013,07,10,01,20,12.70
2013,07,10,01,21,12.70
2013,07,10,01,22,12.70
2013,07,10,01,23,12.70
2013,07,10,01,24,12.70
2013,07,10,01,25,12.70
2013,07,10,01,26,12.70
2013,07,10,01,27,12.60
2013,07,10,01,28,12.60
2013,07,10,01,29,12.60
2013,07,10,01,30,12.60
2013,07,10,01,31,12.60
2013,07,10,01,32,12.60
2013,07,10,01,33,12.60
2013,07,10,01,34,12.70
2013,07,10,01,35,12.70
2013,07,10,01,36,12.80
2013,07,10,01,37,12.80
2013,07,10,01,38,13.00
2013,07,10,01,39,13.10
2013,07,10,01,40,13.20
2013,07,10,01,41,13.40
2013,07,10,01,42,13.60
2013,07,10,01,43,13.70
2013,07,10,01,44,13.90
2013,07,10,01,45,14.10
2013,07,10,01,46,14.20
2013,07,10,01,47,14.30
2013,07,10,01,48,14.40
2013,07,10,01,49,14.50
2013,07,10,01,50,14.50
2013,07,10,01,51,14.60
2013,07,10,01,52,14.60
2013,07,10,01,53,14.60
2013,07,10,01,54,14.60
2013,07,10,01,55,14.60
2013,07,10,01,56,14.70
2013,07,10,01,57,14.70
2013,07,10,01,58,14.70
2013,07,10,01,59,14.70
2013,07,10,02,00,14.70
2013,07,10,02,01,14.70
2013,07,10,02,02,14.70
2013,07,10,02,03,14.70
2013,07,10,02,04,14.70
2013,07,10,02,05,14.70
2013,07,10,02,06,14.70
2013,07,10,02,07,14.70
2013,07,10,02,08,14.70
2013,07,10,02,09,14.70
2013,07,10,02,10,14.70
2013,07,10,02,11,14.70
2013,07,10,02,12,14.60
2013,07,10,02,13,14.60
2013,07,10,02,14,14.60
2013,07,10,02,15,14.60
2013,07,10,02,16,14.60
2013,07,10,02,17,14.50
2013,07,10,02,18,14.40
2013,07,10,02,19,14.40
2013,07,10,02,20,14.40
2013,07,10,02,21,14.40
2013,07,10,02,22,14.40
2013,07,10,02,23,14.40
2013,07,10,02,24,14.40
2013,07,10,02,25,14.40
2013,07,10,02,26,14.40
2013,07,10,02,27,14.40
2013,07,10,02,28,14.40
2013,07,10,02,29,14.40
2013,07,10,02,30,14.40
2013,07,10,02,31,14.40
2013,07,10,02,32,14.40
2013,07,10,02,33,14.40
2013,07,10,02,34,14.30
2013,07,10,02,35,14.30
2013,07,10,02,36,14.20
2013,07,10,02,37,14.20
2013,07,10,02,38,14.20
2013,07,10,02,39,14.30
2013,07,10,02,40,14.30
2013,07,10,02,41,14.20
2013,07,10,02,42,14.20
2013,07,10,02,43,14.20
2013,07,10,02,44,14.20
2013,07,10,02,45,14.20
2013,07,10,02,46,14.20
2013,07,10,02,47,14.20
2013,07,10,02,48,14.20
2013,07,10,02,49,14.20
2013,07,10,02,50,14.10
2013,07,10,02,51,14.20
2013,07,10,02,52,14.20
2013,07,10,02,53,14.20
2013,07,10,02,54,14.20
2013,07,10,02,55,14.20
2013,07,10,02,56,14.20
2013,07,10,02,57,14.20
2013,07,10,02,58,14.20
2013,07,10,02,59,14.10
2013,07,10,03,00,14.10
2013,07,10,03,01,14.10
2013,07,10,03,02,14.10
2013,07,10,03,03,14.00
2013,07,10,03,04,14.00
2013,07,10,03,05,14.00
2013,07,10,03,06,14.00
2013,07,10,03,07,13.90
2013,07,10,03,08,13.90
2013,07,10,03,09,13.90
2013,07,10,03,10,13.80
2013,07,10,03,11,13.80
2013,07,10,03,12,13.80
2013,07,10,03,13,13.70
2013,07,10,03,14,13.70
2013,07,10,03,15,13.70
2013,07,10,03,16,13.60
2013,07,10,03,17,13.60
2013,07,10,03,18,13.60
2013,07,10,03,19,13.60
2013,07,10,03,20,13.60
2013,07,10,03,21,13.70
2013,07,10,03,22,13.70
2013,07,10,03,23,13.70
2013,07,10,03,24,13.70
2013,07,10,03,25,13.70
2013,07,10,03,26,13.70
2013,07,10,03,27,13.70
2013,07,10,03,28,13.80
2013,07,10,03,29,13.80
2013,07,10,03,30,13.80
2013,07,10,03,31,13.80
2013,07,10,03,32,13.80
2013,07,10,03,33,13.80
2013,07,10,03,34,13.80
2013,07,10,03,35,13.80
2013,07,10,03,36,13.80
2013,07,10,03,37,13.80
2013,07,10,03,38,13.80
2013,07,10,03,39,13.80
2013,07,10,03,40,13.80
2013,07,10,03,41,13.80
2013,07,10,03,42,13.80
2013,07,10,03,43,13.80
2013,07,10,03,44,13.80
2013,07,10,03,45,13.80
2013,07,10,03,46,13.80
2013,07,10,03,47,13.80
2013,07,10,03,48,13.70
2013,07,10,03,49,13.70
2013,07,10,03,50,13.70
2013,07,10,03,51,13.60
2013,07,10,03,52,13.60
2013,07,10,03,53,13.60
2013,07,10,03,54,13.60
2013,07,10,03,55,13.60
2013,07,10,03,56,13.70
2013,07,10,03,57,13.70
2013,07,10,03,58,13.70
2013,07,10,03,59,13.70
2013,07,10,04,00,13.70
2013,07,10,04,01,13.70
2013,07,10,04,02,13.70
2013,07,10,04,03,13.70
2013,07,10,04,04,13.70
2013,07,10,04,05,13.70
2013,07,10,04,06,13.70
2013,07,10,04,07,13.80
2013,07,10,04,08,13.80
2013,07,10,04,09,13.80
2013,07,10,04,10,13.80
2013,07,10,04,11,13.80
2013,07,10,04,12,13.80
2013,07,10,04,13,13.80
2013,07,10,04,14,13.80
2013,07,10,04,15,13.80
2013,07,10,04,16,13.80
2013,07,10,04,17,13.80
2013,07,10,04,18,13.80
2013,07,10,04,19,13.80
2013,07,10,04,20,13.80
2013,07,10,04,21,13.80
2013,07,10,04,22,13.80
2013,07,10,04,23,13.80
2013,07,10,04,24,13.80
2013,07,10,04,25,13.80
2013,07,10,04,26,13.80
2013,07,10,04,27,13.80
2013,07,10,04,28,13.80
2013,07,10,04,29,13.80
2013,07,10,04,30,13.80
2013,07,10,04,31,13.80
2013,07,10,04,32,13.80
2013,07,10,04,33,13.90
2013,07,10,04,34,13.90
2013,07,10,04,35,13.90
2013,07,10,04,36,13.90
2013,07,10,04,37,13.90
2013,07,10,04,38,13.90
2013,07,10,04,39,13.90
2013,07,10,04,40,13.90
2013,07,10,04,41,13.90
2013,07,10,04,42,13.90
2013,07,10,04,43,13.90
2013,07,10,04,44,13.90
2013,07,10,04,45,13.90
2013,07,10,04,46,13.90
2013,07,10,04,47,13.90
2013,07,10,04,48,13.90
2013,07,10,04,49,13.90
2013,07,10,04,50,13.90
2013,07,10,04,51,13.90
2013,07,10,04,52,13.90
2013,07,10,04,53,13.90
2013,07,10,04,54,13.90
2013,07,10,04,55,13.90
2013,07,10,04,56,13.90
2013,07,10,04,57,13.90
2013,07,10,04,58,13.90
2013,07,10,04,59,13.90
2013,07,10,05,00,13.90
2013,07,10,05,01,13.90
2013,07,10,05,02,14.00
2013,07,10,05,03,14.00
2013,07,10,05,04,14.00
2013,07,10,05,05,14.00
2013,07,10,05,06,13.90
2013,07,10,05,07,13.90
2013,07,10,05,08,13.90
2013,07,10,05,09,13.90
2013,07,10,05,10,13.90
2013,07,10,05,11,13.90
2013,07,10,05,12,13.90
2013,07,10,05,13,13.90
2013,07,10,05,14,13.90
2013,07,10,05,15,13.90
2013,07,10,05,16,13.90
2013,07,10,05,17,13.90
2013,07,10,05,18,13.90
2013,07,10,05,19,13.90
2013,07,10,05,20,13.90
2013,07,10,05,21,13.90
2013,07,10,05,22,13.90
2013,07,10,05,23,13.90
2013,07,10,05,24,13.90
2013,07,10,05,25,13.90
2013,07,10,05,26,13.90
2013,07,10,05,27,13.90
2013,07,10,05,28,13.90
2013,07,10,05,29,13.90
2013,07,10,05,30,13.90
2013,07,10,05,31,13.90
2013,07,10,05,32,13.90
2013,07,10,05,33,13.90
2013,07,10,05,34,13.90
2013,07,10,05,35,13.90
2013,07,10,05,36,13.90
2013,07,10,05,37,13.90
2013,07,10,05,38,13.90
2013,07,10,05,39,13.90
2013,07,10,05,40,13.80
2013,07,10,05,41,13.80
2013,07,10,05,42,13.80
2013,07,10,05,43,13.80
2013,07,10,05,44,13.80
2013,07,10,05,45,13.80
2013,07,10,05,46,13.80
2013,07,10,05,47,13.80
2013,07,10,05,48,13.70
2013,07,10,05,49,13.70
2013,07,10,05,50,13.70
2013,07,10,05,51,13.80
2013,07,10,05,52,13.80
2013,07,10,05,53,13.80
2013,07,10,05,54,13.80
2013,07,10,05,55,13.80
2013,07,10,05,56,13.80
2013,07,10,05,57,13.80
2013,07,10,05,58,13.80
2013,07,10,05,59,13.80
2013,07,10,06,00,13.80
2013,07,10,06,01,13.80
2013,07,10,06,02,13.80
2013,07,10,06,03,13.80
2013,07,10,06,04,13.80
2013,07,10,06,05,13.80
2013,07,10,06,06,13.80
2013,07,10,06,07,13.80
2013,07,10,06,08,13.80
2013,07,10,06,09,13.80
2013,07,10,06,10,13.80
2013,07,10,06,11,13.80
2013,07,10,06,12,13.80
2013,07,10,06,13,13.80
2013,07,10,06,14,13.80
2013,07,10,06,15,13.80
2013,07,10,06,16,13.80
2013,07,10,06,17,13.80
2013,07,10,06,18,13.80
2013,07,10,06,19,13.80
2013,07,10,06,20,13.80
2013,07,10,06,21,13.80
2013,07,10,06,22,13.80
2013,07,10,06,23,13.80
2013,07,10,06,24,13.80
2013,07,10,06,25,13.80
2013,07,10,06,26,13.80
2013,07,10,06,27,13.80
2013,07,10,06,28,13.80
2013,07,10,06,29,13.80
2013,07,10,06,30,13.80
2013,07,10,06,31,13.80
2013,07,10,06,32,13.80
2013,07,10,06,33,13.80
2013,07,10,06,34,13.80
2013,07,10,06,35,13.80
2013,07,10,06,36,13.80
2013,07,10,06,37,13.80
2013,07,10,06,38,13.80
2013,07,10,06,39,13.80
2013,07,10,06,40,13.80
2013,07,10,06,41,13.90
2013,07,10,06,42,13.90
2013,07,10,06,43,13.90
2013,07,10,06,44,13.90
2013,07,10,06,45,13.90
2013,07,10,06,46,13.90
2013,07,10,06,47,13.90
2013,07,10,06,48,13.90
2013,07,10,06,49,13.90
2013,07,10,06,50,13.90
2013,07,10,06,51,13.90
2013,07,10,06,52,13.90
2013,07,10,06,53,13.90
2013,07,10,06,54,13.90
2013,07,10,06,55,13.90
2013,07,10,06,56,13.90
2013,07,10,06,57,13.90
2013,07,10,06,58,13.90
2013,07,10,06,59,13.90
2013,07,10,07,00,13.90
2013,07,10,07,01,13.90
2013,07,10,07,02,13.90
2013,07,10,07,03,14.00
2013,07,10,07,04,14.00
2013,07,10,07,05,14.00
2013,07,10,07,06,14.00
2013,07,10,07,07,14.00
2013,07,10,07,08,14.00
2013,07,10,07,09,14.00
2013,07,10,07,10,14.00
2013,07,10,07,11,14.00
2013,07,10,07,12,14.00
2013,07,10,07,13,14.00
2013,07,10,07,14,14.00
2013,07,10,07,15,14.00
2013,07,10,07,16,14.00
2013,07,10,07,17,14.00
2013,07,10,07,18,14.00
2013,07,10,07,19,14.00
2013,07,10,07,20,14.00
2013,07,10,07,21,14.00
2013,07,10,07,22,14.00
2013,07,10,07,23,14.00
2013,07,10,07,24,14.00
2013,07,10,07,25,14.00
2013,07,10,07,26,14.00
2013,07,10,07,27,14.00
2013,07,10,07,28,14.00
2013,07,10,07,29,14.00
2013,07,10,07,30,14.00
2013,07,10,07,31,14.00
2013,07,10,07,32,14.00
2013,07,10,07,33,14.00
2013,07,10,07,34,14.00
2013,07,10,07,35,14.10
2013,07,10,07,36,14.10
2013,07,10,07,37,14.10
2013,07,10,07,38,14.10
2013,07,10,07,39,14.10
2013,07,10,07,40,14.10
2013,07,10,07,41,14.10
2013,07,10,07,42,14.10
2013,07,10,07,43,14.10
2013,07,10,07,44,14.10
2013,07,10,07,45,14.10
2013,07,10,07,46,14.10
2013,07,10,07,47,14.10
2013,07,10,07,48,14.10
2013,07,10,07,49,14.20
2013,07,10,07,50,14.20
2013,07,10,07,51,14.20
2013,07,10,07,52,14.20
2013,07,10,07,53,14.20
2013,07,10,07,54,14.20
2013,07,10,07,55,14.20
2013,07,10,07,56,14.20
2013,07,10,07,57,14.20
2013,07,10,07,58,14.20
2013,07,10,07,59,14.20
2013,07,10,08,00,14.20
2013,07,10,08,01,14.20
2013,07,10,08,02,14.20
2013,07,10,08,03,14.20
2013,07,10,08,04,14.20
2013,07,10,08,05,14.20
2013,07,10,08,06,14.20
2013,07,10,08,07,14.20
2013,07,10,08,08,14.20
2013,07,10,08,09,14.20
2013,07,10,08,10,14.20
2013,07,10,08,11,14.20
2013,07,10,08,12,14.10
2013,07,10,08,13,14.10
2013,07,10,08,14,14.10
2013,07,10,08,15,14.10
2013,07,10,08,16,14.10
2013,07,10,08,17,14.20
2013,07,10,08,18,14.20
2013,07,10,08,19,14.20
2013,07,10,08,20,14.20
2013,07,10,08,21,14.20
2013,07,10,08,22,14.20
2013,07,10,08,23,14.20
2013,07,10,08,24,14.20
2013,07,10,08,25,14.20
2013,07,10,08,26,14.20
2013,07,10,08,27,14.20
2013,07,10,08,28,14.20
2013,07,10,08,29,14.20
2013,07,10,08,30,14.30
2013,07,10,08,31,14.30
2013,07,10,08,32,14.30
2013,07,10,08,33,14.30
2013,07,10,08,34,14.30
2013,07,10,08,35,14.30
2013,07,10,08,36,14.30
2013,07,10,08,37,14.30
2013,07,10,08,38,14.30
2013,07,10,08,39,14.30
2013,07,10,08,40,14.40
2013,07,10,08,41,14.40
2013,07,10,08,42,14.40
2013,07,10,08,43,14.40
2013,07,10,08,44,14.40
2013,07,10,08,45,14.40
2013,07,10,08,46,14.40
2013,07,10,08,47,14.50
2013,07,10,08,48,14.50
2013,07,10,08,49,14.50
2013,07,10,08,50,14.50
2013,07,10,08,51,14.50
2013,07,10,08,52,14.50
2013,07,10,08,53,14.50
2013,07,10,08,54,14.50
2013,07,10,08,55,14.50
2013,07,10,08,56,14.50
2013,07,10,08,57,14.50
2013,07,10,08,58,14.50
2013,07,10,08,59,14.50
2013,07,10,09,00,14.50
2013,07,10,09,01,14.50
2013,07,10,09,02,14.60
2013,07,10,09,03,14.60
2013,07,10,09,04,14.60
2013,07,10,09,05,14.60
2013,07,10,09,06,14.60
2013,07,10,09,07,14.70
2013,07,10,09,08,14.70
2013,07,10,09,09,14.70
2013,07,10,09,10,14.70
2013,07,10,09,11,14.70
2013,07,10,09,12,14.80
2013,07,10,09,13,14.80
2013,07,10,09,14,14.80
2013,07,10,09,15,14.80
2013,07,10,09,16,14.80
2013,07,10,09,17,14.90
2013,07,10,09,18,14.90
2013,07,10,09,19,15.00
2013,07,10,09,20,15.00
2013,07,10,09,21,15.10
2013,07,10,09,22,15.20
2013,07,10,09,23,15.30
2013,07,10,09,24,15.30
2013,07,10,09,25,15.40
2013,07,10,09,26,15.50
2013,07,10,09,27,15.50
2013,07,10,09,28,15.50
2013,07,10,09,29,15.60
2013,07,10,09,30,15.60
2013,07,10,09,31,15.60
2013,07,10,09,32,15.60
2013,07,10,09,33,15.70
2013,07,10,09,34,15.70
2013,07,10,09,35,15.70
2013,07,10,09,36,15.60
2013,07,10,09,37,15.60
2013,07,10,09,38,15.60
2013,07,10,09,39,15.50
2013,07,10,09,40,15.50
2013,07,10,09,41,15.50
2013,07,10,09,42,15.50
2013,07,10,09,43,15.50
2013,07,10,09,44,15.50
2013,07,10,09,45,15.60
2013,07,10,09,46,15.60
2013,07,10,09,47,15.60
2013,07,10,09,48,15.60
2013,07,10,09,49,15.60
2013,07,10,09,50,15.60
2013,07,10,09,51,15.70
2013,07,10,09,52,15.70
2013,07,10,09,53,15.70
2013,07,10,09,54,15.70
2013,07,10,09,55,15.70
2013,07,10,09,56,15.80
2013,07,10,09,57,15.80
2013,07,10,09,58,15.80
2013,07,10,09,59,15.80
2013,07,10,10,00,15.80
2013,07,10,10,01,15.80
2013,07,10,10,02,15.90
2013,07,10,10,03,15.90
2013,07,10,10,04,16.00
2013,07,10,10,05,16.10
2013,07,10,10,06,16.10
2013,07,10,10,07,16.20
2013,07,10,10,08,16.20
2013,07,10,10,09,16.30
2013,07,10,10,10,16.30
2013,07,10,10,11,16.30
2013,07,10,10,12,16.40
2013,07,10,10,13,16.50
2013,07,10,10,14,16.50
2013,07,10,10,15,16.60
2013,07,10,10,16,16.60
2013,07,10,10,17,16.60
2013,07,10,10,18,16.70
2013,07,10,10,19,16.80
2013,07,10,10,20,16.80
2013,07,10,10,21,16.80
2013,07,10,10,22,16.90
2013,07,10,10,23,16.90
2013,07,10,10,24,17.00
2013,07,10,10,25,17.10
2013,07,10,10,26,17.10
2013,07,10,10,27,17.20
2013,07,10,10,28,17.30
2013,07,10,10,29,17.30
2013,07,10,10,30,17.40
2013,07,10,10,31,17.40
2013,07,10,10,32,17.40
2013,07,10,10,33,17.40
2013,07,10,10,34,17.50
2013,07,10,10,35,17.40
2013,07,10,10,36,17.50
2013,07,10,10,37,17.50
2013,07,10,10,38,17.60
2013,07,10,10,39,17.60
2013,07,10,10,40,17.60
2013,07,10,10,41,17.60
2013,07,10,10,42,17.60
2013,07,10,10,43,17.60
2013,07,10,10,44,17.60
2013,07,10,10,45,17.70
2013,07,10,10,46,17.70
2013,07,10,10,47,17.70
2013,07,10,10,48,17.70
2013,07,10,10,49,17.80
2013,07,10,10,50,17.80
2013,07,10,10,51,17.80
2013,07,10,10,52,17.90
2013,07,10,10,53,17.90
2013,07,10,10,54,17.90
2013,07,10,10,55,17.90
2013,07,10,10,56,17.90
2013,07,10,10,57,17.90
2013,07,10,10,58,17.90
2013,07,10,10,59,17.90
2013,07,10,11,00,18.00
2013,07,10,11,01,18.00
2013,07,10,11,02,18.00
2013,07,10,11,03,18.10
2013,07,10,11,04,18.10
2013,07,10,11,05,18.20
2013,07,10,11,06,18.20
2013,07,10,11,07,18.20
2013,07,10,11,08,18.20
2013,07,10,11,09,18.10
2013,07,10,11,10,18.10
2013,07,10,11,11,18.10
2013,07,10,11,12,18.20
2013,07,10,11,13,18.20
2013,07,10,11,14,18.20
2013,07,10,11,15,18.30
2013,07,10,11,16,18.30
2013,07,10,11,17,18.30
2013,07,10,11,18,18.30
2013,07,10,11,19,18.30
2013,07,10,11,20,18.30
2013,07,10,11,21,18.20
2013,07,10,11,22,18.30
2013,07,10,11,23,18.30
2013,07,10,11,24,18.40
2013,07,10,11,25,18.40
2013,07,10,11,26,18.40
2013,07,10,11,27,18.50
2013,07,10,11,28,18.50
2013,07,10,11,29,18.40
2013,07,10,11,30,18.40
2013,07,10,11,31,18.40
2013,07,10,11,32,18.30
2013,07,10,11,33,18.30
2013,07,10,11,34,18.20
2013,07,10,11,35,18.20
2013,07,10,11,36,18.20
2013,07,10,11,37,18.10
2013,07,10,11,38,18.10
2013,07,10,11,39,18.00
2013,07,10,11,40,18.00
2013,07,10,11,41,18.00
2013,07,10,11,42,18.00
2013,07,10,11,43,17.90
2013,07,10,11,44,18.00
2013,07,10,11,45,18.10
2013,07,10,11,46,18.20
2013,07,10,11,47,18.20
2013,07,10,11,48,18.30
2013,07,10,11,49,18.30
2013,07,10,11,50,18.30
2013,07,10,11,51,18.30
2013,07,10,11,52,18.30
2013,07,10,11,53,18.30
2013,07,10,11,54,18.30
2013,07,10,11,55,18.20
2013,07,10,11,56,18.20
2013,07,10,11,57,18.20
2013,07,10,11,58,18.20
2013,07,10,11,59,18.20
2013,07,10,12,00,18.20
2013,07,10,12,01,18.30
2013,07,10,12,02,18.30
2013,07,10,12,03,18.30
2013,07,10,12,04,18.30
2013,07,10,12,05,18.30
2013,07,10,12,06,18.30
2013,07,10,12,07,18.30
2013,07,10,12,08,18.30
2013,07,10,12,09,18.30
2013,07,10,12,10,18.30
2013,07,10,12,11,18.30
2013,07,10,12,12,18.30
2013,07,10,12,13,18.30
2013,07,10,12,14,18.20
2013,07,10,12,15,18.20
2013,07,10,12,16,18.20
2013,07,10,12,17,18.20
2013,07,10,12,18,18.10
2013,07,10,12,19,18.20
2013,07,10,12,20,18.20
2013,07,10,12,21,18.20
2013,07,10,12,22,18.20
2013,07,10,12,23,18.20
2013,07,10,12,24,18.20
2013,07,10,12,25,18.30
2013,07,10,12,26,18.30
2013,07,10,12,27,18.40
2013,07,10,12,28,18.50
2013,07,10,12,29,18.60
2013,07,10,12,30,18.60
2013,07,10,12,31,18.60
2013,07,10,12,32,18.60
2013,07,10,12,33,18.50
2013,07,10,12,34,18.50
2013,07,10,12,35,18.50
2013,07,10,12,36,18.50
2013,07,10,12,37,18.50
2013,07,10,12,38,18.40
2013,07,10,12,39,18.40
2013,07,10,12,40,18.30
2013,07,10,12,41,18.30
2013,07,10,12,42,18.20
2013,07,10,12,43,18.20
2013,07,10,12,44,18.20
2013,07,10,12,45,18.20
2013,07,10,12,46,18.20
2013,07,10,12,47,18.20
2013,07,10,12,48,18.20
2013,07,10,12,49,18.20
2013,07,10,12,50,18.30
2013,07,10,12,51,18.20
2013,07,10,12,52,18.30
2013,07,10,12,53,18.30
2013,07,10,12,54,18.30
2013,07,10,12,55,18.30
2013,07,10,12,56,18.30
2013,07,10,12,57,18.40
2013,07,10,12,58,18.40
2013,07,10,12,59,18.40
2013,07,10,13,00,18.30
2013,07,10,13,01,18.30
2013,07,10,13,02,18.30
2013,07,10,13,03,18.30
2013,07,10,13,04,18.30
2013,07,10,13,05,18.30
2013,07,10,13,06,18.30
2013,07,10,13,07,18.40
2013,07,10,13,08,18.30
2013,07,10,13,09,18.20
2013,07,10,13,10,18.10
2013,07,10,13,11,18.10
2013,07,10,13,12,18.00
2013,07,10,13,13,18.00
2013,07,10,13,14,18.00
2013,07,10,13,15,18.00
2013,07,10,13,16,18.00
2013,07,10,13,17,18.00
2013,07,10,13,18,18.00
2013,07,10,13,19,18.00
2013,07,10,13,20,18.00
2013,07,10,13,21,18.10
2013,07,10,13,22,18.10
2013,07,10,13,23,18.10
2013,07,10,13,24,18.20
2013,07,10,13,25,18.20
2013,07,10,13,26,18.20
2013,07,10,13,27,18.20
2013,07,10,13,28,18.20
2013,07,10,13,29,18.20
2013,07,10,13,30,18.30
2013,07,10,13,31,18.30
2013,07,10,13,32,18.30
2013,07,10,13,33,18.40
2013,07,10,13,34,18.40
2013,07,10,13,35,18.40
2013,07,10,13,36,18.40
2013,07,10,13,37,18.50
2013,07,10,13,38,18.50
2013,07,10,13,39,18.60
2013,07,10,13,40,18.60
2013,07,10,13,41,18.60
2013,07,10,13,42,18.60
2013,07,10,13,43,18.60
2013,07,10,13,44,18.60
2013,07,10,13,45,18.60
2013,07,10,13,46,18.60
2013,07,10,13,47,18.60
2013,07,10,13,48,18.60
2013,07,10,13,49,18.60
2013,07,10,13,50,18.50
2013,07,10,13,51,18.50
2013,07,10,13,52,18.60
2013,07,10,13,53,18.50
2013,07,10,13,54,18.50
2013,07,10,13,55,18.50
2013,07,10,13,56,18.50
2013,07,10,13,57,18.50
2013,07,10,13,58,18.50
2013,07,10,13,59,18.50
2013,07,10,14,00,18.50
2013,07,10,14,01,18.60
2013,07,10,14,02,18.60
2013,07,10,14,03,18.60
2013,07,10,14,04,18.50
2013,07,10,14,05,18.50
2013,07,10,14,06,18.50
2013,07,10,14,07,18.50
2013,07,10,14,08,18.40
2013,07,10,14,09,18.40
2013,07,10,14,10,18.50
2013,07,10,14,11,18.50
2013,07,10,14,12,18.50
2013,07,10,14,13,18.50
2013,07,10,14,14,18.50
2013,07,10,14,15,18.40
2013,07,10,14,16,18.40
2013,07,10,14,17,18.40
2013,07,10,14,18,18.50
2013,07,10,14,19,18.50
2013,07,10,14,20,18.40
2013,07,10,14,21,18.40
2013,07,10,14,22,18.50
2013,07,10,14,23,18.50
2013,07,10,14,24,18.60
2013,07,10,14,25,18.60
2013,07,10,14,26,18.60
2013,07,10,14,27,18.60
2013,07,10,14,28,18.50
2013,07,10,14,29,18.50
2013,07,10,14,30,18.60
2013,07,10,14,31,18.60
2013,07,10,14,32,18.50
2013,07,10,14,33,18.40
2013,07,10,14,34,18.30
2013,07,10,14,35,18.20
2013,07,10,14,36,18.20
2013,07,10,14,37,18.20
2013,07,10,14,38,18.20
2013,07,10,14,39,18.20
2013,07,10,14,40,18.20
2013,07,10,14,41,18.30
2013,07,10,14,42,18.30
2013,07,10,14,43,18.30
2013,07,10,14,44,18.30
2013,07,10,14,45,18.30
2013,07,10,14,46,18.30
2013,07,10,14,47,18.30
2013,07,10,14,48,18.20
2013,07,10,14,49,18.20
2013,07,10,14,50,18.20
2013,07,10,14,51,18.20
2013,07,10,14,52,18.10
2013,07,10,14,53,18.10
2013,07,10,14,54,18.10
2013,07,10,14,55,18.10
2013,07,10,14,56,18.10
2013,07,10,14,57,18.10
2013,07,10,14,58,18.20
2013,07,10,14,59,18.20
2013,07,10,15,00,18.20
2013,07,10,15,01,18.20
2013,07,10,15,02,18.30
2013,07,10,15,03,18.30
2013,07,10,15,04,18.30
2013,07,10,15,05,18.30
2013,07,10,15,06,18.30
2013,07,10,15,07,18.20
2013,07,10,15,08,18.20
2013,07,10,15,09,18.20
2013,07,10,15,10,18.20
2013,07,10,15,11,18.20
2013,07,10,15,12,18.20
2013,07,10,15,13,18.20
2013,07,10,15,14,18.20
2013,07,10,15,15,18.20
2013,07,10,15,16,18.10
2013,07,10,15,17,18.10
2013,07,10,15,18,18.00
2013,07,10,15,19,17.90
2013,07,10,15,20,17.90
2013,07,10,15,21,17.90
2013,07,10,15,22,17.90
2013,07,10,15,23,17.90
2013,07,10,15,24,17.90
2013,07,10,15,25,18.00
2013,07,10,15,26,18.00
2013,07,10,15,27,18.10
2013,07,10,15,28,18.20
2013,07,10,15,29,18.20
2013,07,10,15,30,18.20
2013,07,10,15,31,18.20
2013,07,10,15,32,18.20
2013,07,10,15,33,18.10
2013,07,10,15,34,18.10
2013,07,10,15,35,18.10
2013,07,10,15,36,18.10
2013,07,10,15,37,18.00
2013,07,10,15,38,18.00
2013,07,10,15,39,18.00
2013,07,10,15,40,18.00
2013,07,10,15,41,18.10
2013,07,10,15,42,18.20
2013,07,10,15,43,18.20
2013,07,10,15,44,18.10
2013,07,10,15,45,18.10
2013,07,10,15,46,18.00
2013,07,10,15,47,18.00
2013,07,10,15,48,17.90
2013,07,10,15,49,17.80
2013,07,10,15,50,17.70
2013,07,10,15,51,17.60
2013,07,10,15,52,17.60
2013,07,10,15,53,17.70
2013,07,10,15,54,17.70
2013,07,10,15,55,17.80
2013,07,10,15,56,17.80
2013,07,10,15,57,17.80
2013,07,10,15,58,17.80
2013,07,10,15,59,17.80
2013,07,10,16,00,17.70
2013,07,10,16,01,17.60
2013,07,10,16,02,17.60
2013,07,10,16,03,17.60
2013,07,10,16,04,17.60
2013,07,10,16,05,17.50
2013,07,10,16,06,17.50
2013,07,10,16,07,17.40
2013,07,10,16,08,17.30
2013,07,10,16,09,17.20
2013,07,10,16,10,17.20
2013,07,10,16,11,17.30
2013,07,10,16,12,17.30
2013,07,10,16,13,17.40
2013,07,10,16,14,17.40
2013,07,10,16,15,17.40
2013,07,10,16,16,17.50
2013,07,10,16,17,17.60
2013,07,10,16,18,17.70
2013,07,10,16,19,17.70
2013,07,10,16,20,17.80
2013,07,10,16,21,17.80
2013,07,10,16,22,17.90
2013,07,10,16,23,18.00
2013,07,10,16,24,18.10
2013,07,10,16,25,18.20
2013,07,10,16,26,18.30
2013,07,10,16,27,18.50
2013,07,10,16,28,18.60
2013,07,10,16,29,18.70
2013,07,10,16,30,18.70
2013,07,10,16,31,18.70
2013,07,10,16,32,18.60
2013,07,10,16,33,18.50
2013,07,10,16,34,18.30
2013,07,10,16,35,18.20
2013,07,10,16,36,18.20
2013,07,10,16,37,18.20
2013,07,10,16,38,18.20
2013,07,10,16,39,18.30
2013,07,10,16,40,18.40
2013,07,10,16,41,18.50
2013,07,10,16,42,18.60
2013,07,10,16,43,18.70
2013,07,10,16,44,18.70
2013,07,10,16,45,18.80
2013,07,10,16,46,18.80
2013,07,10,16,47,18.80
2013,07,10,16,48,18.80
2013,07,10,16,49,18.80
2013,07,10,16,50,18.80
2013,07,10,16,51,18.80
2013,07,10,16,52,18.80
2013,07,10,16,53,18.80
2013,07,10,16,54,18.70
2013,07,10,16,55,18.70
2013,07,10,16,56,18.70
2013,07,10,16,57,18.60
2013,07,10,16,58,18.60
2013,07,10,16,59,18.60
2013,07,10,17,00,18.60
2013,07,10,17,01,18.50
2013,07,10,17,02,18.50
2013,07,10,17,03,18.50
2013,07,10,17,04,18.50
2013,07,10,17,05,18.60
2013,07,10,17,06,18.60
2013,07,10,17,07,18.70
2013,07,10,17,08,18.70
2013,07,10,17,09,18.70
2013,07,10,17,10,18.70
2013,07,10,17,11,18.60
2013,07,10,17,12,18.60
2013,07,10,17,13,18.60
2013,07,10,17,14,18.50
2013,07,10,17,15,18.50
2013,07,10,17,16,18.40
2013,07,10,17,17,18.30
2013,07,10,17,18,18.20
2013,07,10,17,19,18.20